Regional Weather Roundup
Issued by NWS

Current Version | Previous Version | Text Only | Print | Product List | Glossary On
Versions: 1 2 3 4 5 6 7 8 9 10 11 12 13 14 15 16 17 18 19 20 21 22 23 24 25 26 27 28 29 30 31 32 33 34 35 36 37 38 39 40 41 42 43 44 45 46 47 48 49 50
185
ASUS44 KOUN 070510
RWROK

WEATHER ROUNDUP FOR OKLAHOMA
NATIONAL WEATHER SERVICE NORMAN OK
1100 PM CST FRI DEC 06 2019

NOTE: "FAIR" INDICATES FEW OR NO CLOUDS BELOW 12,000 FEET WITH NO
      SIGNIFICANT WEATHER AND/OR OBSTRUCTIONS TO VISIBILITY.

OKZ001>007-009>012-014-015-017-070600-
NORTHWEST OKLAHOMA AND THE PANHANDLE

CITY           SKY/WX    TMP DP  RH WIND       PRES   REMARKS
GAGE           CLEAR     30  25  81 CALM      30.33F
GUYMON         CLEAR     29  27  92 SW7       30.29F WCI  22
ENID/WOODRING  CLEAR     30  27  86 N3        30.37R
$$

OKZ016-021>023-033>039-044-045-070600-
SOUTHWEST OKLAHOMA

CITY           SKY/WX    TMP DP  RH WIND       PRES   REMARKS
LAWTON/REGL    CLEAR     42  33  70 N8        30.36S
LAWTON/FT SILL CLEAR     38  36  91 N10       30.34S WCI  31
FREDERICK      CLEAR     39  34  82 E7        30.33R WCI  34
CLINTON        CLEAR     36  29  75 E6        30.36R WCI  31
HOBART           N/A    N/A N/A N/A MISG      30.36S
ALTUS AFB      CLEAR     38  33  80 NE8       30.36R WCI  32
$$

OKZ018>020-024>031-070600-
CENTRAL OKLAHOMA

CITY           SKY/WX    TMP DP  RH WIND       PRES   REMARKS
OKLAHOMA CITY  MOCLDY    39  27  62 N8        30.36S WCI  33
OKC/WILEY POST CLEAR     38  29  70 N6        30.36F WCI  33
OKC/TINKER AFB CLEAR     39  27  62 N8        30.35S WCI  33
STILLWATER     CLEAR     32  26  78 CALM      30.38R
GUTHRIE        CLEAR     34  27  75 N3        30.37S
$$

OKZ008-013-054>072-070600-
NORTHEAST OKLAHOMA

CITY           SKY/WX    TMP DP  RH WIND       PRES   REMARKS
TULSA          PTCLDY    37  29  72 N5        30.38S WCI  33
TULSA/JONES    CLEAR     37  29  72 N3        30.38S
PONCA CITY     CLEAR     29  23  78 CALM      30.38R
BARTLESVILLE   CLEAR     29  26  89 CALM      30.41S
MUSKOGEE       CLEAR     36  32  85 N7        30.38R WCI  30
$$

OKZ032-040>043-046>053-073>077-070600-
SOUTH CENTRAL/SOUTHEAST OKLAHOMA

CITY           SKY/WX    TMP DP  RH WIND       PRES   REMARKS
ARDMORE/DWNTWN CLEAR     45  32  61 CALM      30.36S
MCALESTER      CLEAR     41  33  73 N5        30.35S
$$





USA.gov is the U.S. government's official web portal to all federal, state and local government web resources and services.